Location: Homewood
(41.1836°S, 175.9581°E)
Time: 04:15:40
(UTC+00:00)

Milstar 3 Cent rocket - Visible Passes

Search period start: 25 July 2024 00:00
Search period end: 04 August 2024 00:00
Orbit: 709 x 5143 km, 28.3° (Epoch: 24 July)

Date Brightness Start Highest point End Pass type
(mag) Time Alt. Az. Time Alt. Az. Time Alt. Az.
25 Jul 6.5 13:39:30 30° NNE 13:39:52 30° NNE 14:00:11 10° E visible
25 Jul 5.8 16:08:22 27° NW 16:25:41 50° NNE 16:42:28 10° E visible
25 Jul 5.3 18:45:41 10° WNW 19:08:59 51° N 19:20:07 10° ENE visible
26 Jul 7.0 11:59:14 13° ENE 11:59:14 13° ENE 12:02:58 10° ENE visible
26 Jul 6.2 14:28:05 38° N 14:33:03 40° NNE 14:53:41 10° E visible
26 Jul 5.6 16:56:57 20° WNW 17:18:39 54° N 17:33:52 10° ENE visible
27 Jul 6.7 12:47:41 24° NE 12:47:41 24° NE 13:01:15 10° E visible
27 Jul 6.0 15:16:31 40° NNW 15:26:21 48° NNE 15:46:06 10° E visible
27 Jul 5.5 17:45:22 12° WNW 18:11:19 55° N 18:24:54 10° ENE visible
28 Jul7.111:07:10E11:07:10E10:26:22Nvisible
28 Jul 6.4 13:36:00 36° NE 13:36:00 36° NE 13:55:55 10° E visible
28 Jul 5.8 16:04:50 35° NW 16:19:40 54° N 16:37:53 10° E visible
28 Jul 5.4 18:38:43 10° W 19:03:32 52° NNW 19:15:35 10° ENE visible
29 Jul 6.9 11:55:23 15° ENE 11:55:23 15° ENE 12:00:40 10° E visible
29 Jul 6.1 14:24:12 45° NNE 14:26:29 46° NNE 14:49:02 10° E visible
29 Jul 5.7 16:53:01 26° WNW 17:12:48 57° N 17:29:17 10° ENE visible
30 Jul 6.6 12:43:30 27° ENE 12:43:30 27° ENE 12:57:03 10° E visible
30 Jul 5.9 15:12:18 47° NNW 15:19:57 53° NNE 15:41:22 10° E visible
30 Jul 5.6 17:41:07 16° WNW 18:05:35 56° N 18:20:18 10° ENE visible
31 Jul6.911:02:43E11:02:43E10:19:37Nvisible
31 Jul 6.3 13:31:31 40° NE 13:31:31 40° NE 13:51:10 10° E visible
31 Jul 5.8 16:00:20 41° NW 16:13:27 58° N 16:33:10 10° ENE visible
31 Jul 5.6 18:31:47 10° W 18:57:50 50° NNW 19:10:54 10° NE visible
01 Aug 6.9 11:50:41 17° ENE 11:50:41 17° ENE 11:56:49 10° E visible
01 Aug 6.0 14:19:29 51° NNE 14:19:44 51° NNE 14:44:08 10° E visible
01 Aug 5.7 16:48:17 30° WNW 17:06:46 59° N 17:24:33 10° ENE visible
02 Aug 6.5 12:38:35 30° ENE 12:38:35 30° ENE 12:52:14 10° E visible
02 Aug 5.9 15:07:22 53° NNW 15:13:23 57° NNE 15:36:27 10° E visible
02 Aug 5.7 17:36:10 19° WNW 17:59:38 56° NNW 18:15:32 10° ENE visible
03 Aug6.810:57:39E10:57:39E10:13:34Nvisible
03 Aug 6.2 13:26:26 43° NE 13:26:26 43° NE 13:46:03 10° E visible
03 Aug 5.8 15:55:13 45° NW 16:07:05 60° N 16:28:16 10° ENE visible
03 Aug 5.7 18:24:56 10° W 18:51:53 48° NNW 19:06:02 10° NE visible
